N0JY-4 Weather Reports


Display with metric or nautical units.
time (UTC)temp
F
wind
direction
speed
MPH
gust
MPH
rain 1hr
in
rain 24hr
in
rain mn
in
humidity
%
barometer
mb
20170426114037 73 231 3.0 3.0 0.00 0.00 0.00 998.5
20170426113305 73 193 1.0 1.0 0.00 0.00 0.00 998.1
20170426112539 74 163 0.0 0.0 0.00 0.00 0.00 997.9
20170426111812 74 198 2.0 2.0 0.00 0.00 0.00 998.0
20170426111044 74 165 4.0 3.0 0.00 0.00 0.00 998.0
20170426110313 74 226 1.0 1.0 0.00 0.00 0.00 998.0
20170426105546 75 180 3.0 2.0 0.00 0.00 0.00 997.8
20170426104820 75 128 3.0 2.0 0.00 0.00 0.00 997.4
20170426104053 75 187 1.0 2.0 0.00 0.00 0.00 997.8
20170426103318 75 127 6.0 6.0 0.00 0.00 0.00 997.6
20170426102552 75 150 6.0 8.0 0.00 0.00 0.00 997.8
20170426101826 75 158 5.0 5.0 0.00 0.00 0.00 997.7
20170426101059 75 166 3.0 3.0 0.00 0.00 0.00 997.4
20170426100327 75 135 6.0 6.0 0.00 0.00 0.00 997.3
20170426095559 75 128 5.0 5.0 0.00 0.00 0.00 997.5
20170426094106 76 132 3.0 1.0 0.00 0.00 0.00 997.7
20170426093337 76 156 6.0 5.0 0.00 0.00 0.00 997.5
20170426092610 76 163 7.0 8.0 0.00 0.00 0.00 997.6
20170426091843 76 169 5.0 4.0 0.00 0.00 0.00 997.9
20170426091117 76 153 4.0 5.0 0.00 0.00 0.00 997.8
20170426090346 76 159 6.0 6.0 0.00 0.00 0.00 997.7
20170426085619 76 146 5.0 4.0 0.00 0.00 0.00 997.7
20170426084853 76 190 5.0 4.0 0.00 0.00 0.00 997.7
20170426084126 76 146 8.0 7.0 0.00 0.00 0.00 997.6
20170426083355 76 143 8.0 7.0 0.00 0.00 0.00 997.7
20170426082628 76 162 8.0 8.0 0.00 0.00 0.00 997.6
20170426081901 76 158 9.0 11.0 0.00 0.00 0.00 997.7
20170426081135 77 172 6.0 6.0 0.00 0.00 0.00 997.9
20170426080403 77 197 5.0 10.0 0.00 0.00 0.00 998.1
20170426075634 77 174 8.0 9.0 0.00 0.00 0.00 998.3
20170426074906 77 177 6.0 8.0 0.00 0.00 0.00 998.4
20170426074140 77 187 5.0 10.0 0.00 0.00 0.00 998.3
20170426073936 77 193 10.0 7.0 0.00 0.00 0.00 997.8
20170426073404 77 172 7.0 6.0 0.00 0.00 0.00 998.1
20170426072637 77 193 10.0 7.0 0.00 0.00 0.00 997.8
20170426071910 77 165 8.0 7.0 0.00 0.00 0.00 997.8
20170426071143 76 170 13.0 14.0 0.00 0.00 0.00 997.6
20170426070413 76 111 9.0 13.0 0.00 0.00 0.00 997.5
20170426065647 76 150 9.0 8.0 0.00 0.00 0.00 997.4
20170426065557 76 146 10.0 12.0 0.00 0.00 0.00 997.1
20170426064920 76 156 14.0 13.0 0.00 0.00 0.00 997.2
20170426064152 76 146 10.0 12.0 0.00 0.00 0.00 997.1
20170426063422 76 163 14.0 17.0 0.00 0.00 0.00 997.0
20170426062655 76 167 12.0 8.0 0.00 0.00 0.00 997.0
20170426061928 76 150 12.0 13.0 0.00 0.00 0.00 997.0
20170426061200 76 167 9.0 15.0 0.00 0.00 0.00 996.9
20170426060428 76 160 11.0 16.0 0.00 0.00 0.00 997.1
20170426055700 76 152 16.0 10.0 0.00 0.00 0.00 997.1
20170426054930 76 136 11.0 10.0 0.00 0.00 0.00 997.1
20170426054204 76 150 16.0 10.0 0.00 0.00 0.00 997.1
20170426053428 76 127 11.0 10.0 0.00 0.00 0.00 997.2
20170426052657 76 143 10.0 16.0 0.00 0.00 0.00 997.2
20170426051929 76 169 12.0 9.0 0.00 0.00 0.00 997.1
20170426051202 76 141 13.0 12.0 0.00 0.00 0.00 997.1
20170426050428 76 148 11.0 13.0 0.00 0.00 0.00 997.1
20170426045701 76 128 12.0 10.0 0.00 0.00 0.00 997.2
20170426044934 76 128 13.0 12.0 0.00 0.00 0.00 997.2
20170426044206 76 142 9.0 13.0 0.00 0.00 0.00 997.4
20170426043433 76 143 12.0 10.0 0.00 0.00 0.00 997.4
20170426042707 76 127 14.0 17.0 0.00 0.00 0.00 997.4
20170426041939 76 159 13.0 10.0 0.00 0.00 0.00 997.4
20170426041213 76 100 14.0 10.0 0.00 0.00 0.00 997.4
20170426040439 77 135 15.0 16.0 0.00 0.00 0.00 997.4
20170426035712 77 141 12.0 13.0 0.00 0.00 0.00 997.5
20170426034946 77 163 17.0 11.0 0.00 0.00 0.00 997.3
20170426034217 77 146 14.0 15.0 0.00 0.00 0.00 997.3
20170426033444 78 139 17.0 12.0 0.00 0.00 0.00 997.3
20170426032718 78 134 14.0 11.0 0.00 0.00 0.00 997.3
20170426031951 78 143 14.0 20.0 0.00 0.00 0.00 997.3
20170426031225 78 146 18.0 17.0 0.00 0.00 0.00 997.2
20170426030454 78 146 13.0 16.0 0.00 0.00 0.00 997.3
20170426025727 79 145 15.0 15.0 0.00 0.00 0.00 997.1
20170426025001 79 146 15.0 13.0 0.00 0.00 0.00 997.0
20170426024234 79 180 15.0 9.0 0.00 0.00 0.00 996.9
20170426023502 79 150 15.0 14.0 0.00 0.00 0.00 996.8
20170426022735 79 135 13.0 12.0 0.00 0.00 0.00 996.9
20170426022006 80 146 12.0 14.0 0.00 0.00 0.00 996.9
20170426021240 80 155 11.0 9.0 0.00 0.00 0.00 997.0
20170426020508 80 162 13.0 9.0 0.00 0.00 0.00 996.9
20170426015741 80 134 10.0 12.0 0.00 0.00 0.00 996.9
20170426015015 80 143 9.0 7.0 0.00 0.00 0.00 997.0
20170426014248 80 131 8.0 10.0 0.00 0.00 0.00 997.0
20170426013518 80 149 9.0 10.0 0.00 0.00 0.00 997.0
20170426012750 81 149 8.0 9.0 0.00 0.00 0.00 997.0
20170426012023 81 169 8.0 8.0 0.00 0.00 0.00 997.0
20170426011257 81 139 9.0 10.0 0.00 0.00 0.00 997.0
20170426010525 81 124 10.0 8.0 0.00 0.00 0.00 997.0
20170426005758 82 128 8.0 8.0 0.00 0.00 0.00 996.9
20170426005032 82 167 13.0 15.0 0.00 0.00 0.00 996.8
20170426004305 82 146 10.0 12.0 0.00 0.00 0.00 996.7
20170426003534 82 146 10.0 13.0 0.00 0.00 0.00 996.7
20170426002807 82 150 13.0 14.0 0.00 0.00 0.00 996.6
20170426002041 83 165 16.0 12.0 0.00 0.00 0.00 996.6
20170426001315 83 132 10.0 12.0 0.00 0.00 0.00 996.4
20170426000542 83 148 12.0 14.0 0.00 0.00 0.00 996.4
20170425235815 83 142 14.0 12.0 0.00 0.00 0.00 996.4
20170425235049 83 152 10.0 12.0 0.00 0.00 0.00 996.4
20170425234322 84 152 17.0 14.0 0.00 0.00 0.00 996.5
20170425233552 84 155 15.0 12.0 0.00 0.00 0.00 996.5
20170425232825 84 128 15.0 17.0 0.00 0.00 0.00 996.6
20170425232058 84 146 16.0 10.0 0.00 0.00 0.00 996.6
20170425231331 84 131 17.0 11.0 0.00 0.00 0.00 996.4
20170425230600 84 146 16.0 13.0 0.00 0.00 0.00 996.4
20170425225834 84 159 16.0 18.0 0.00 0.00 0.00 996.3
20170425225107 84 139 14.0 10.0 0.00 0.00 0.00 996.5
20170425224340 84 135 18.0 18.0 0.00 0.00 0.00 996.5
20170425223605 85 128 13.0 16.0 0.00 0.00 0.00 996.7
20170425222838 85 149 13.0 14.0 0.00 0.00 0.00 996.7
20170425222112 85 149 15.0 16.0 0.00 0.00 0.00 996.8
20170425221344 86 155 12.0 13.0 0.00 0.00 0.00 996.9
20170425220612 86 128 14.0 15.0 0.00 0.00 0.00 997.0
20170425215843 87 188 12.0 8.0 0.00 0.00 0.00 997.0
20170425215116 87 179 10.0 8.0 0.00 0.00 0.00 997.0
20170425214350 88 169 10.0 7.0 0.00 0.00 0.00 997.1
20170425213619 89 139 13.0 11.0 0.00 0.00 0.00 997.1
20170425212852 89 165 11.0 13.0 0.00 0.00 0.00 997.1
20170425212126 88 142 12.0 13.0 0.00 0.00 0.00 997.1
20170425211356 89 152 14.0 15.0 0.00 0.00 0.00 997.2
20170425210624 89 152 10.0 13.0 0.00 0.00 0.00 997.3
20170425205858 89 149 14.0 16.0 0.00 0.00 0.00 997.4
20170425205131 89 179 13.0 13.0 0.00 0.00 0.00 997.3
20170425204405 89 143 13.0 16.0 0.00 0.00 0.00 997.6
20170425203633 89 167 12.0 9.0 0.00 0.00 0.00 997.8
20170425202906 89 162 11.0 11.0 0.00 0.00 0.00 997.9
20170425202139 89 124 10.0 15.0 0.00 0.00 0.00 998.0
20170425201412 88 162 15.0 15.0 0.00 0.00 0.00 998.0
20170425200640 89 172 12.0 10.0 0.00 0.00 0.00 998.1
20170425195914 89 162 11.0 11.0 0.00 0.00 0.00 998.4
20170425195147 88 153 16.0 15.0 0.00 0.00 0.00 998.4
20170425194421 88 155 15.0 16.0 0.00 0.00 0.00 998.4
20170425193650 88 149 13.0 13.0 0.00 0.00 0.00 998.5
20170425192923 88 186 16.0 15.0 0.00 0.00 0.00 998.5
20170425192157 88 187 14.0 19.0 0.00 0.00 0.00 998.5
20170425191430 88 149 11.0 10.0 0.00 0.00 0.00 998.6
20170425190659 87 156 15.0 13.0 0.00 0.00 0.00 998.7
20170425185931 89 132 10.0 12.0 0.00 0.00 0.00 998.8
20170425185205 87 176 12.0 12.0 0.00 0.00 0.00 998.9
20170425184437 86 190 12.0 6.0 0.00 0.00 0.00 999.0
20170425183706 86 169 10.0 8.0 0.00 0.00 0.00 999.1
20170425182939 86 150 10.0 12.0 0.00 0.00 0.00 999.2
20170425182213 84 184 14.0 14.0 0.00 0.00 0.00 999.2
20170425181446 85 179 13.0 20.0 0.00 0.00 0.00 999.3
20170425180716 85 167 11.0 10.0 0.00 0.00 0.00 999.4
20170425175949 84 186 8.0 6.0 0.00 0.00 0.00 999.6
20170425175222 84 153 12.0 12.0 0.00 0.00 0.00 999.6
20170425174456 85 194 10.0 8.0 0.00 0.00 0.00 999.6
20170425173725 85 167 10.0 9.0 0.00 0.00 0.00 999.6
20170425172958 85 180 14.0 12.0 0.00 0.00 0.00 999.6
20170425172232 83 191 13.0 7.0 0.00 0.00 0.00 999.8
20170425171505 83 160 8.0 14.0 0.00 0.00 0.00 999.8
20170425170735 83 132 9.0 7.0 0.00 0.00 0.00 999.9
20170425170008 83 158 9.0 16.0 0.00 0.00 0.00 1000.1
20170425165241 82 188 12.0 9.0 0.00 0.00 0.00 1000.3
20170425164515 82 190 11.0 10.0 0.00 0.00 0.00 1000.4
20170425163744 81 129 13.0 10.0 0.00 0.00 0.00 1000.5
20170425163018 81 149 13.0 12.0 0.00 0.00 0.00 1000.4
20170425162251 80 167 14.0 16.0 0.00 0.00 0.00 1000.4
20170425161524 79 156 10.0 15.0 0.00 0.00 0.00 1000.4
20170425160752 78 172 15.0 14.0 0.00 0.00 0.00 1000.5
20170425160025 78 146 12.0 11.0 0.00 0.00 0.00 1000.6
20170425155258 78 152 9.0 12.0 0.00 0.00 0.00 1000.7
20170425154532 78 150 14.0 17.0 0.00 0.00 0.00 1000.6
20170425153801 77 143 11.0 11.0 0.00 0.00 0.00 1000.7
20170425153034 77 155 15.0 7.0 0.00 0.00 0.00 1000.6
20170425152308 76 190 10.0 18.0 0.00 0.00 0.00 1000.6
20170425151541 76 177 11.0 14.0 0.00 0.00 0.00 1000.8
20170425150812 76 160 13.0 12.0 0.00 0.00 0.00 1000.8
20170425150045 75 160 13.0 11.0 0.00 0.00 0.00 1001.0
20170425145318 75 174 10.0 7.0 0.00 0.00 0.00 1000.9
20170425144552 74 163 13.0 14.0 0.00 0.00 0.00 1000.9
20170425143821 73 160 8.0 11.0 0.00 0.00 0.00 1000.9
20170425143053 72 141 10.0 10.0 0.00 0.00 0.00 1001.0
20170425142327 71 162 11.0 10.0 0.00 0.00 0.00 1000.9
20170425141601 70 150 10.0 11.0 0.00 0.00 0.00 1001.0
20170425140826 70 152 9.0 8.0 0.00 0.00 0.00 1001.0
20170425140059 69 173 12.0 17.0 0.00 0.00 0.00 1001.0
20170425135332 69 181 12.0 12.0 0.00 0.00 0.00 1001.1
20170425134605 68 141 11.0 7.0 0.00 0.00 0.00 1001.2
20170425133832 67 188 11.0 12.0 0.00 0.00 0.00 1000.9
20170425133106 66 131 9.0 12.0 0.00 0.00 0.00 1000.9
20170425132339 65 132 12.0 12.0 0.00 0.00 0.00 1001.0
20170425131612 65 136 12.0 12.0 0.00 0.00 0.00 1001.1
20170425130837 64 152 10.0 10.0 0.00 0.00 0.00 1001.2
20170425130104 64 146 9.0 12.0 0.00 0.00 0.00 1001.3
20170425125337 64 163 11.0 7.0 0.00 0.00 0.00 1001.1
20170425124608 63 159 10.0 10.0 0.00 0.00 0.00 1001.2
20170425123837 63 138 11.0 9.0 0.00 0.00 0.00 1001.1
20170425123111 63 117 10.0 7.0 0.00 0.00 0.00 1001.1
20170425122343 63 148 10.0 9.0 0.00 0.00 0.00 1001.1
20170425121616 62 138 10.0 11.0 0.00 0.00 0.00 1000.9
20170425120845 62 150 9.0 10.0 0.00 0.00 0.00 1000.9
20170425120118 63 145 9.0 7.0 0.00 0.00 0.00 1000.8
20170425115352 63 150 8.0 6.0 0.00 0.00 0.00 1000.8
20170425114624 63 146 9.0 8.0 0.00 0.00 0.00 1000.8